Temp
21 22 21 21 21 22 21 22 22 22 22 22 22 21 21 21 21 21 21 21 21 21 21 21 22 22 22 22 22 22 22 21 21 21 21 21 21 21 21 22 22 22 22 22 22 22 22 22 22 23 23 23 23 23 22 22 22 22 22 22 22 22 22 22 22 22 22 22 22 22 22 22 22 22 22 22 21 21 21 21 21 21 21 21 21
22 22 22 21 21 22 21 22 22 22 22 22 22 21 21 21 21 21 21 21 21 21 21 21 21 22 22 22 22 22 21 21 21 21 21 21 21 21 21 21 21 22 22 22 22 22 22 21 22 23 23 23 23 23 23 22 22 22 22 22 22 22 22 22 22 22 22 22 22 22 22 22 22 22 22 21 21 21 21 22 22 22 21 21 22
22 22 22 21 21 21 21 22 22 22 22 22 22 22 22 21 21 21 21 21 21 21 21 21 21 22 22 22 22 22 22 22 22 22 21 21 21 21 20 20 21 22 22 22 22 22 22 22 22 22 23 23 23 23 23 22 22 22 22 22 22 22 22 22 22 22 22 22 22 22 22 22 22 21 21 21 21 21 21 22 22 21 21 21 21
22 22 22 22 21 21 21 22 22 22 22 22 22 22 21 21 21 21 21 21 21 21 22 21 21 22 22 22 22 22 22 22 22 22 21 21 21 21 21 21 21 21 21 21 22 21 21 21 22 22 22 23 23 23 23 22 22 22 22 22 22 22 22 22 21 22 22 22 22 22 22 22 22 22 22 22 22 22 22 22 21 21 21 21 21
22 22 22 22 22 21 21 21 21 22 22 22 21 21 21 21 21 21 21 21 21 21 22 22 22 22 22 22 22 22 22 22 22 21 21 21 21 21 21 21 21 21 21 21 22 22 21 21 22 22 22 22 23 23 23 22 22 22 22 22 22 22 22 22 22 22 22 22 22 22 22 22 22 22 22 22 22 22 22 21 21 21 21 21 21
22 22 22 22 21 21 21 21 21 21 21 21 21 21 21 21 21 21 21 22 22 21 21 22 22 22 22 22 22 22 22 22 22 21 21 21 21 21 21 21 21 21 21 21 21 22 21 22 22 22 22 22 22 23 23 23 23 22 22 22 22 22 22 22 22 22 22 22 22 22 22 22 22 22 22 22 22 22 22 22 21 22 21 21 21
22 22 22 21 21 21 21 21 21 21 21 21 21 21 21 21 21 21 21 22 21 21 21 22 21 21 21 22 22 22 22 22 22 22 21 21 21 21 21 21 21 21 21 21 21 21 21 22 22 22 22 22 22 22 22 22 23 22 22 22 22 22 22 22 22 22 22 22 22 22 22 22 22 22 22 22 22 22 22 21 21 22 22 21 21
21 21 22 21 21 21 21 21 21 21 21 21 21 21 21 21 21 21 21 22 21 21 21 21 21 21 21 22 22 22 22 22 21 22 21 21 21 21 21 21 21 21 21 21 21 21 21 22 22 22 22 22 22 22 22 22 23 22 23 22 22 23 23 23 23 23 22 22 22 22 22 22 22 21 21 21 21 21 21 21 21 21 21 21 21
21 21 22 21 21 20 21 21 21 21 21 21 21 21 21 21 21 21 22 21 21 21 21 21 21 21 21 21 21 22 22 22 21 21 21 21 21 21 21 21 21 21 21 21 21 21 21 22 22 22 22 22 22 22 23 23 23 23 23 23 23 23 23 23 23 23 23 22 22 22 22 21 21 21 21 21 21 21 21 21 21 21 21 21 20
21 22 22 21 20 20 21 21 21 21 21 21 21 21 21 21 21 21 22 21 21 21 21 21 21 21 21 21 21 21 22 22 21 21 22 22 21 21 21 21 21 21 21 21 21 21 22 22 22 22 23 23 23 23 23 23 23 23 23 23 23 23 23 23 23 23 23 23 22 21 21 21 21 20 21 21 21 21 21 21 21 21 21 20 20
21 22 22 21 20 20 21 21 21 21 21 21 21 21 21 21 21 21 21 21 21 21 21 21 21 21 21 21 21 21 21 21 21 21 22 22 21 21 21 21 21 21 21 21 21 21 22 22 22 23 23 23 23 23 23 23 24 24 23 23 23 23 23 23 23 23 23 23 22 22 22 21 21 21 21 21 21 21 21 21 21 21 21 20 20
21 22 22 21 21 21 21 21 21 21 21 21 21 21 21 21 21 21 21 21 21 21 21 21 21 21 21 21 21 21 21 21 22 22 22 21 21 21 21 21 21 21 21 21 21 21 22 22 22 23 23 23 23 23 23 24 24 24 24 24 23 23 24 24 24 23 23 23 23 22 22 22 21 21 21 21 21 21 21 21 21 20 20 20 20
21 22 21 21 21 21 21 21 21 21 21 21 21 21 21 21 21 21 21 21 21 20 21 21 21 21 21 21 21 22 22 22 22 22 22 22 21 21 21 21 21 21 21 22 21 21 22 22 23 23 23 23 24 24 24 24 24 24 24 24 24 24 24 24 24 24 23 23 23 23 23 22 22 21 21 21 21 21 21 20 20 20 20 20 20
21 21 21 21 22 22 22 21 21 21 21 21 21 21 21 21 20 21 21 21 20 20 21 20 20 21 21 21 21 21 21 22 22 22 22 21 21 22 22 21 21 21 21 22 22 22 22 22 23 23 23 23 24 24 24 24 24 24 24 24 24 24 24 24 24 24 23 23 23 23 24 23 22 22 21 21 20 20 20 20 20 20 20 20 20
22 21 22 22 22 22 22 21 21 21 21 21 21 21 21 21 20 21 21 21 20 21 21 21 21 21 21 21 21 21 21 22 22 22 22 21 21 21 22 21 21 21 21 21 22 22 22 23 23 23 23 24 24 24 24 24 24 24 24 24 24 24 24 24 24 24 24 24 23 23 23 23 23 22 21 21 20 20 20 20 20 20 20 20 20
21 21 21 21 21 21 21 22 22 21 21 21 21 21 21 20 20 21 21 21 20 21 22 22 21 21 21 21 21 21 21 21 22 22 22 21 21 21 21 22 22 21 21 22 22 22 23 23 23 23 23 24 24 24 24 25 24 25 25 25 24 24 25 25 24 24 24 24 24 23 23 23 23 22 21 21 20 20 20 20 20 20 20 20 20
21 21 21 21 21 21 21 21 21 21 21 21 21 21 20 20 20 21 21 21 21 21 22 22 22 21 21 21 21 21 21 21 22 22 22 21 21 21 21 22 22 22 22 22 23 23 23 23 23 23 24 24 24 24 24 25 25 25 25 25 25 25 25 25 25 24 24 24 24 23 23 23 23 22 21 20 20 20 20 20 20 20 20 20 20
22 21 21 21 21 21 21 21 21 21 20 20 20 20 20 20 20 20 21 21 21 21 21 21 21 21 21 21 21 21 21 21 21 22 22 22 21 21 22 22 22 22 22 23 23 23 23 23 24 24 24 24 24 24 24 25 25 25 25 25 25 25 25 25 25 24 24 24 24 24 23 23 23 22 21 21 20 20 20 20 20 20 20 20 20
21 21 21 21 21 21 21 21 21 21 21 20 20 20 20 20 20 20 21 21 21 21 21 21 21 21 21 21 21 21 21 21 21 22 22 22 22 22 22 22 22 22 23 23 23 23 24 24 24 24 24 24 24 24 24 24 25 25 25 25 25 25 25 25 25 24 24 24 24 24 24 23 23 22 22 21 20 20 20 20 20 20 20 20 20
21 21 21 21 21 21 21 21 21 22 21 21 21 20 20 20 21 21 21 21 21 21 21 21 21 21 21 21 21 21 21 21 21 21 22 22 23 23 22 23 23 23 23 23 23 24 24 24 24 24 24 24 25 25 25 25 25 25 25 25 25 25 25 25 24 24 25 24 24 24 24 24 23 22 22 21 21 20 20 20 20 20 20 20 20
21 21 21 21 21 21 21 21 21 21 21 21 21 20 20 20 21 21 21 21 21 21 21 20 21 21 21 21 22 22 22 22 22 22 22 22 22 23 23 23 23 23 23 23 24 24 24 25 24 24 24 25 25 25 25 25 25 25 25 25 26 26 26 25 24 25 25 25 25 25 24 24 23 23 22 22 21 20 20 20 20 20 21 21 21
21 21 21 22 21 21 21 21 21 21 21 21 21 20 20 21 21 21 21 21 21 21 21 21 21 21 21 21 22 22 22 22 22 22 22 22 22 22 23 23 23 24 24 24 24 25 25 25 25 25 25 25 25 25 25 26 26 26 26 26 26 26 26 25 24 25 25 25 25 25 24 24 23 23 23 22 21 21 21 21 21 21 21 21 21
21 21 21 22 21 21 21 21 21 21 21 21 21 21 21 21 21 21 21 21 21 21 21 22 21 21 21 22 22 22 22 22 22 22 23 23 23 23 23 23 24 24 24 24 25 25 25 25 25 25 25 25 25 26 26 26 26 26 26 26 27 26 25 25 25 25 26 25 25 25 24 24 24 23 23 22 21 21 21 21 21 21 21 21 21
21 21 21 22 21 21 21 21 21 21 21 21 21 21 21 21 21 21 21 21 21 21 21 22 22 22 22 22 22 22 22 22 22 22 23 23 23 23 23 24 24 24 24 25 25 25 25 25 25 25 25 26 26 26 26 26 26 26 26 26 26 26 25 25 26 26 26 25 25 25 24 24 24 23 23 23 22 22 21 21 21 21 21 21 21
22 21 21 21 22 21 21 21 21 21 21 21 21 21 21 21 21 22 21 22 22 22 22 22 22 22 22 22 22 22 22 22 22 22 23 23 24 24 24 24 24 25 25 25 25 26 26 26 26 26 26 26 26 26 26 26 26 27 26 26 26 26 26 26 26 26 26 25 25 25 25 24 24 24 23 23 23 23 22 22 22 22 22 21 21
22 21 21 21 21 21 21 21 21 21 21 21 22 22 22 22 22 22 22 22 22 22 22 22 22 22 23 22 22 22 22 22 23 23 24 24 24 24 24 25 25 25 25 26 26 26 26 26 26 26 26 26 26 26 26 27 27 27 26 26 27 26 27 27 26 26 26 26 26 25 25 25 24 24 24 24 24 23 23 23 23 22 22 22 22
22 22 22 21 22 21 21 22 21 21 21 22 22 22 22 22 22 22 22 22 23 23 23 23 23 23 23 23 23 23 23 23 23 23 23 24 24 24 24 25 25 25 25 25 26 26 26 26 26 26 27 27 27 27 27 27 27 27 27 27 27 27 27 26 26 26 26 26 26 25 25 25 25 25 24 24 24 24 24 24 24 24 24 24 24
22 22 22 22 22 22 22 22 22 21 21 22 22 22 22 22 22 22 22 23 23 23 23 23 23 23 23 23 23 23 24 24 23 23 23 24 24 24 24 24 24 25 25 25 25 25 26 26 26 27 27 27 28 27 27 28 28 27 27 27 27 27 27 26 26 26 26 26 26 26 26 26 25 25 25 25 25 25 25 24 24 24 24 24 24
23 23 22 22 22 22 22 22 22 22 21 22 22 22 22 22 22 23 23 23 23 23 23 23 23 23 24 24 24 24 24 24 24 24 24 24 24 24 24 24 24 24 24 25 25 25 26 26 26 27 27 28 28 28 28 28 28 28 27 27 27 27 26 26 26 26 26 27 27 27 26 26 26 25 25 25 25 25 25 25 25 25 25 25 25
23 23 23 22 22 22 22 22 22 22 22 22 22 23 23 23 23 23 23 23 23 24 23 24 24 24 24 24 24 25 25 24 24 24 24 24 24 25 25 25 25 25 25 25 26 26 27 27 27 27 28 28 29 29 29 28 28 28 28 27 27 27 27 27 27 26 26 27 27 26 26 26 26 26 26 26 26 26 26 25 25 25 25 25 25
23 23 23 23 23 23 22 22 22 23 23 23 23 23 23 23 23 23 23 24 24 24 24 24 24 24 24 25 25 25 25 25 24 24 24 25 25 25 25 25 25 25 26 26 26 27 27 27 27 28 28 28 29 29 29 28 28 28 28 28 27 27 27 27 27 27 27 27 27 26 26 26 26 26 26 26 26 26 26 26 26 26 26 26 26
24 23 23 23 23 23 23 22 23 23 23 23 23 23 23 23 23 23 23 24 24 24 24 24 24 25 25 25 26 25 25 24 24 24 25 25 25 25 25 25 26 26 26 26 26 26 27 27 27 27 28 28 29 29 29 29 29 29 28 28 28 28 28 27 27 27 28 27 27 27 27 27 27 27 27 27 27 27 26 26 26 26 26 26 26
25 24 24 24 24 24 23 23 23 23 23 23 23 23 24 24 24 24 24 24 25 24 24 25 25 25 25 25 25 25 25 25 24 25 25 25 25 25 25 26 26 26 26 26 26 27 27 27 27 27 28 28 29 29 29 29 29 29 29 29 28 28 28 28 27 27 28 28 28 27 27 27 27 27 27 27 27 27 27 27 27 27 27 27 27
25 24 24 24 24 24 23 23 24 23 23 23 24 24 24 24 24 24 24 24 24 25 25 25 25 25 25 25 25 25 25 25 25 25 25 25 25 25 26 26 26 26 26 26 27 27 27 27 27 28 28 29 29 29 29 29 29 29 29 29 29 29 28 28 28 28 28 28 28 28 28 28 28 28 27 27 27 27 27 28 27 27 27 27 27
25 25 25 25 24 24 24 24 24 24 24 24 24 24 25 25 25 25 25 25 25 25 25 25 25 25 25 25 25 25 25 25 25 25 25 25 25 26 26 26 26 26 26 26 27 27 27 27 27 28 29 29 29 29 29 29 29 29 29 29 29 29 29 29 29 29 28 28 29 28 28 28 28 28 28 28 28 28 28 28 28 28 28 28 28
25 25 25 25 25 24 24 24 24 24 24 25 25 25 25 25 25 25 26 26 26 26 25 25 25 25 25 25 25 25 25 25 25 25 25 25 25 26 26 26 26 26 26 27 27 27 27 27 27 28 28 29 29 29 29 30 30 30 30 29 30 29 29 29 29 29 29 29 29 29 29 29 29 29 28 28 28 28 28 28 28 28 28 28 28
26 26 25 25 25 25 25 25 25 25 25 25 25 25 26 26 26 26 26 26 26 26 25 25 25 25 25 25 25 25 25 25 25 25 25 25 26 26 26 26 26 26 27 27 27 27 27 27 27 28 28 28 28 28 29 30 30 30 30 30 30 30 30 30 29 29 29 29 29 29 29 29 29 29 29 29 28 28 28 28 28 28 28 28 28
26 26 26 26 26 26 26 25 25 26 26 26 26 26 26 26 26 27 27 26 26 26 25 25 25 25 25 25 25 25 24 25 25 25 25 26 26 26 26 26 26 26 26 27 27 27 27 27 27 28 28 28 28 28 29 30 30 30 30 30 30 30 30 30 30 30 30 30 29 29 29 29 29 29 29 29 29 29 29 28 28 28 28 28 28
27 27 27 27 27 26 26 26 26 26 26 26 27 27 27 26 26 27 27 27 26 26 26 25 25 25 25 25 25 24 24 24 25 25 26 26 26 26 26 26 26 26 26 27 27 27 27 27 27 28 28 28 28 28 29 29 30 30 30 30 30 30 30 30 30 30 30 30 30 29 29 29 29 29 29 29 29 29 29 29 29 28 28 28 28
27 28 28 27 27 27 27 26 26 26 26 27 27 27 26 26 27 26 26 27 26 26 25 25 25 25 25 25 24 24 24 24 25 25 25 26 26 26 26 26 26 26 26 26 27 27 27 27 27 28 28 28 28 29 29 29 29 30 30 30 30 30 30 30 30 30 30 29 29 30 30 29 29 29 29 29 29 29 29 29 28 28 28 28 28
28 28 27 27 27 27 27 26 26 26 26 26 27 27 26 26 26 26 26 26 26 26 25 25 25 25 25 25 24 24 24 25 25 25 25 25 26 26 26 26 26 26 26 26 27 27 27 27 27 27 28 28 28 28 28 29 29 29 29 30 30 30 30 30 30 29 29 29 29 30 30 30 30 29 29 29 29 29 28 28 28 28 28 28 28
28 28 27 27 27 27 26 26 26 26 26 26 26 26 26 26 26 26 26 26 26 26 26 25 25 25 25 24 25 25 25 25 25 25 25 25 25 26 26 26 26 26 26 26 27 27 27 27 27 27 28 28 28 28 28 29 29 28 28 28 29 29 29 30 30 29 29 29 30 30 29 30 30 29 29 29 29 29 29 28 28 28 28 28 28
27 28 27 27 27 27 26 26 26 26 26 26 26 26 26 26 26 26 26 26 26 26 26 25 25 25 25 24 25 25 25 25 25 25 25 25 25 25 26 26 26 26 26 26 27 27 27 27 27 27 28 28 28 28 28 28 28 28 28 28 27 28 29 29 29 29 29 29 30 30 29 29 29 29 29 29 29 29 29 28 28 28 28 28 27
27 27 27 27 27 27 26 26 26 26 26 26 26 26 26 26 26 26 26 26 26 25 25 25 25 25 25 24 25 25 25 25 25 25 25 25 25 25 25 26 26 26 26 26 26 27 27 27 27 27 27 28 28 28 28 28 28 28 28 27 27 27 28 28 28 29 29 29 29 29 29 29 29 29 29 29 29 29 28 28 28 28 28 28 27
27 27 27 27 27 27 26 26 26 26 26 26 26 26 26 27 27 26 26 26 26 25 25 25 25 25 25 25 25 25 25 25 25 25 25 25 25 25 25 25 26 26 26 26 26 27 27 27 27 27 27 27 27 28 28 28 28 28 28 27 27 27 27 26 27 28 29 29 29 29 28 28 28 28 28 28 28 28 28 28 28 28 28 28 27
27 27 27 27 27 27 26 26 26 26 26 26 26 26 26 26 26 26 26 26 25 25 25 25 25 25 25 25 25 25 25 25 25 25 25 25 25 25 25 25 26 26 26 26 26 26 27 27 27 27 27 27 27 27 27 27 27 28 28 27 27 27 27 26 26 26 27 28 28 28 28 28 28 28 28 28 28 28 28 28 28 28 27 27 27
27 27 27 27 26 26 26 26 26 26 26 26 26 26 26 26 26 26 26 26 26 25 26 26 25 25 25 25 25 25 25 25 25 25 25 25 25 25 25 25 26 26 26 26 26 26 27 26 26 27 27 27 27 27 27 27 27 27 28 27 27 28 27 27 26 25 26 27 28 28 28 28 28 28 28 28 28 28 28 28 28 28 27 27 27
28 27 27 27 26 26 26 26 26 26 26 26 26 26 26 26 26 26 26 26 26 26 26 26 26 25 25 25 25 25 25 25 25 25 25 25 25 25 25 25 25 26 26 26 26 26 26 26 27 27 27 27 27 27 27 27 27 27 28 27 27 27 27 27 27 26 25 26 27 28 28 28 28 27 28 28 27 27 28 28 28 28 27 27 27
28 28 27 27 26 26 26 26 26 26 26 26 26 26 26 26 26 26 26 26 26 26 26 26 26 26 26 25 25 25 25 25 25 25 25 25 25 25 25 25 25 26 26 26 26 26 26 26 27 27 26 27 27 26 27 27 27 27 27 27 28 27 27 27 27 26 25 25 26 26 26 27 27 27 27 27 27 27 27 27 27 28 27 27 26
28 28 28 27 26 26 26 26 26 26 26 26 25 25 26 26 26 26 27 27 27 27 26 26 26 26 25 25 25 25 25 25 25 25 25 25 25 26 25 25 25 26 26 26 26 26 26 26 26 26 26 26 27 27 27 27 27 27 27 27 27 27 27 27 27 27 26 25 26 26 25 25 26 27 27 27 27 27 27 27 27 27 27 27 26
29 28 28 27 26 26 26 26 26 26 26 26 25 25 25 26 26 26 27 27 27 27 26 26 26 26 25 25 25 26 25 25 25 25 25 25 25 25 26 25 25 25 25 26 26 26 26 26 26 26 26 26 27 27 27 27 27 27 27 27 27 27 27 27 27 27 26 26 26 25 24 25 25 26 26 26 27 27 27 27 27 27 27 27 27
Height
811 811 812 812 814 814 815 815 815 815 816 816 817 817 818 819 819 819 819 819 818 818 818 817 816 816 816 815 815 814 814 815 815 816 816 818 819 820 821 823 824 825 826 827 828 828 829 828 827 825 824 824 825 827 829 831 832 833 835 835 836 837 838 839 839 840 841 842 843 843 843 844 844 844 844 844 844 845 845 846 846 847 847 847 846
809 811 812 813 814 814 815 815 816 816 816 817 817 818 818 819 819 819 819 819 819 818 818 817 817 817 817 816 816 816 816 816 816 817 817 819 820 822 823 824 825 827 827 828 829 830 831 830 830 828 826 825 826 828 829 831 833 834 836 836 837 838 839 839 840 840 841 842 842 843 843 844 844 844 844 844 845 845 846 846 847 847 847 847 847
809 811 811 813 814 814 815 815 816 816 817 818 818 818 818 819 819 819 819 819 819 819 818 818 818 818 818 817 818 818 818 817 817 818 818 820 822 824 825 826 826 828 829 830 830 831 832 831 831 830 829 827 828 829 829 832 834 835 836 837 838 839 840 840 840 841 841 842 842 843 843 844 844 844 844 845 846 846 847 847 848 848 848 848 848
809 810 811 813 814 815 816 816 817 817 818 818 819 819 819 820 819 819 819 820 820 819 819 819 819 819 819 819 819 819 819 818 818 819 820 821 823 825 826 827 828 829 830 831 832 832 833 833 833 832 831 830 830 830 831 833 834 836 837 838 839 840 841 842 842 842 842 843 843 843 843 844 845 845 845 846 846 846 847 848 848 848 849 848 848
810 811 812 812 813 815 815 816 817 817 818 819 819 820 820 820 820 820 820 820 820 820 820 820 820 819 820 820 820 820 820 819 820 821 822 823 824 826 828 829 830 830 831 832 833 833 834 835 835 835 834 833 832 832 833 834 835 837 838 839 840 841 842 843 844 843 844 844 844 843 844 844 845 846 846 846 846 847 848 848 849 849 849 849 849
811 811 812 812 814 814 815 816 817 818 818 819 819 820 820 820 820 820 820 820 820 821 821 821 821 820 821 821 821 821 821 822 822 823 823 824 825 827 829 830 831 832 832 833 834 835 835 836 836 836 836 835 835 834 835 836 837 838 840 840 841 842 843 844 845 845 845 844 844 844 844 845 845 846 846 846 846 847 847 848 849 849 849 849 849
810 812 813 813 814 814 815 816 817 817 818 818 819 820 820 820 820 820 820 820 821 821 821 822 821 821 822 822 822 823 823 824 825 825 825 825 826 828 830 831 832 833 833 834 835 836 837 837 838 838 837 837 836 836 837 837 838 839 841 842 842 842 843 844 845 846 845 845 845 845 845 845 846 846 846 846 847 847 847 848 849 849 849 850 849
811 812 812 813 814 815 815 816 817 817 818 818 818 819 820 820 821 821 821 821 822 822 822 823 822 823 823 824 824 824 825 826 826 826 827 827 828 829 831 832 833 834 834 835 836 837 838 839 839 839 838 838 838 838 838 838 839 840 842 843 843 843 844 844 844 845 846 846 845 845 845 846 846 846 847 847 847 848 848 849 849 850 850 850 850
812 812 812 813 814 815 816 816 817 817 818 818 818 819 819 820 821 821 822 822 823 823 823 823 824 824 824 825 825 826 826 827 827 828 828 828 829 830 831 833 834 835 836 837 837 838 838 839 839 839 839 839 839 839 839 839 839 841 842 843 843 844 845 844 844 845 845 846 846 846 846 846 847 847 848 848 848 849 848 849 849 850 850 851 851
812 812 813 813 814 816 816 816 816 817 818 818 819 819 820 820 821 821 822 823 823 824 825 825 825 825 826 826 827 827 828 828 829 829 829 829 830 831 832 834 835 836 837 838 838 839 839 840 840 839 839 839 839 839 839 839 840 841 842 843 844 845 845 845 845 844 845 846 846 846 846 847 847 848 848 849 849 849 849 849 850 850 851 851 851
812 813 813 813 815 815 815 816 816 817 818 818 819 819 820 820 821 822 822 823 824 825 826 826 826 827 827 828 828 828 829 830 830 830 830 831 831 832 833 834 835 836 838 839 839 840 840 840 840 840 840 840 840 840 840 840 841 841 842 843 844 845 845 846 846 845 846 846 846 846 846 847 847 848 849 849 849 849 849 849 850 851 851 851 851
812 813 813 814 815 816 816 816 816 817 817 818 819 819 820 820 821 822 822 823 824 826 827 827 827 828 829 829 829 829 830 830 831 831 832 832 833 834 835 835 836 837 838 840 840 841 841 841 840 840 841 840 840 841 841 841 841 842 842 843 843 845 845 846 846 846 847 846 847 846 847 847 847 848 849 850 850 850 850 850 851 851 851 851 851
812 812 813 814 814 816 816 816 816 817 818 818 819 820 820 820 822 822 823 824 825 826 827 827 828 829 830 830 830 831 831 832 832 832 833 833 834 835 835 837 837 838 839 840 841 841 842 841 841 841 841 841 841 841 841 842 842 843 843 843 844 844 845 846 847 847 847 847 847 847 847 847 848 848 849 850 850 850 850 851 851 851 852 851 851
812 812 813 814 814 816 815 817 817 817 818 818 819 819 820 820 821 822 823 824 825 826 827 828 828 830 830 831 832 832 833 833 833 833 834 834 835 836 836 838 838 839 840 841 841 842 842 842 842 842 842 842 842 842 842 843 843 843 843 844 844 844 845 846 847 848 848 847 848 848 848 848 848 849 850 850 850 850 851 851 851 851 851 851 851
811 812 813 814 814 816 816 817 817 818 818 818 819 819 820 820 821 823 823 824 826 826 827 828 829 830 831 832 833 833 834 833 834 834 834 835 836 837 838 839 839 840 840 841 842 842 843 842 842 842 843 843 842 843 843 843 844 844 844 845 845 845 846 846 847 848 848 848 849 849 849 849 849 850 850 851 851 851 851 851 851 851 851 852 851
811 812 813 813 814 815 816 817 817 818 818 819 819 819 820 820 822 823 824 825 826 826 827 828 829 831 832 833 834 834 835 834 835 835 836 837 837 838 839 840 840 840 841 841 842 842 843 843 843 843 843 843 843 843 843 844 844 845 845 846 846 846 846 846 847 848 848 849 849 849 849 850 850 851 851 851 851 851 852 852 852 852 852 852 852
812 813 813 813 815 815 816 816 817 817 817 819 819 819 820 821 822 823 824 825 826 827 827 828 829 831 832 833 835 835 835 836 836 836 837 838 839 840 840 840 841 841 842 842 842 843 843 843 843 843 843 844 844 844 844 845 845 846 846 846 846 846 847 847 848 848 848 849 849 850 849 850 851 851 852 852 852 852 852 852 852 852 852 852 852
813 813 813 814 815 815 815 816 816 817 817 818 819 819 820 821 822 823 825 825 826 827 827 829 830 831 833 834 835 836 836 837 837 838 839 840 841 841 841 841 842 842 842 843 843 843 843 843 843 843 844 844 844 845 845 845 846 846 846 847 847 847 847 848 849 849 848 848 849 849 849 850 850 851 852 852 852 852 853 853 853 853 852 853 852
814 814 814 814 814 815 815 816 816 816 817 817 818 819 820 821 822 824 825 826 826 828 829 830 831 832 833 834 835 836 837 838 839 839 840 841 842 842 842 842 842 843 843 843 843 844 844 843 843 844 844 844 845 845 846 846 846 846 847 847 847 848 848 849 850 849 849 849 849 849 849 849 850 851 851 851 852 852 852 853 853 853 853 853 853
814 815 814 814 814 815 815 816 816 817 817 817 818 819 821 822 823 825 826 827 827 828 829 830 832 833 834 835 836 837 838 839 840 841 842 843 843 843 843 843 844 844 844 843 844 844 844 844 844 844 844 845 845 845 846 846 846 846 847 848 848 849 849 850 850 850 849 849 849 849 849 849 850 850 850 851 851 852 852 853 853 853 853 853 853
815 815 814 814 814 815 815 816 816 817 817 817 818 819 821 822 823 825 826 828 828 829 830 831 832 833 835 836 837 838 839 840 841 842 843 844 844 844 844 844 844 844 844 844 844 844 844 844 844 845 845 845 845 846 846 846 846 846 847 847 848 848 849 850 851 850 850 850 850 849 849 849 849 850 850 850 851 852 852 852 852 852 853 853 852
816 816 815 814 814 815 816 816 816 816 817 817 818 819 821 822 823 825 826 828 829 830 830 831 833 834 835 836 837 838 839 841 842 843 844 845 845 845 845 845 845 845 845 844 844 844 845 845 845 846 846 846 846 846 846 846 846 847 847 847 847 848 849 850 851 851 850 850 850 849 849 849 849 850 850 850 850 851 851 852 852 852 852 852 852
815 816 815 814 814 816 817 816 816 817 817 818 818 820 821 822 824 825 826 828 829 830 831 832 833 834 835 837 838 839 840 842 843 844 845 845 846 846 846 845 845 845 845 845 845 845 845 845 846 846 846 846 846 846 846 846 847 847 847 847 848 849 849 850 850 850 850 849 849 849 849 849 849 850 850 850 850 850 851 851 851 851 851 851 851
815 816 815 815 815 816 817 817 817 818 818 818 819 820 821 823 824 825 827 828 830 831 832 833 834 835 836 837 839 839 841 842 844 845 845 846 846 846 846 846 846 846 845 845 845 845 846 846 846 846 846 846 846 846 846 846 847 847 848 848 848 850 850 850 850 850 849 849 849 849 849 849 850 850 850 849 849 849 850 850 850 850 850 851 851
815 816 816 816 816 816 817 817 817 818 818 819 820 821 822 824 825 826 827 828 830 831 833 834 835 836 837 838 839 840 842 843 844 846 846 846 847 847 847 847 846 846 846 846 846 846 846 846 846 846 846 846 845 846 846 846 847 847 848 849 849 850 850 850 850 850 849 849 849 849 849 849 850 849 849 849 848 849 849 849 849 849 850 850 850
816 817 817 817 817 817 817 817 817 818 820 820 821 822 823 824 825 826 828 829 831 832 834 835 836 837 838 839 840 841 842 843 845 846 847 847 847 847 847 847 847 847 847 847 847 846 846 846 845 845 845 845 845 845 846 846 846 847 848 849 850 850 850 850 850 850 849 849 849 849 849 849 849 849 849 849 848 848 849 849 849 849 849 849 850
816 817 817 818 817 818 818 817 818 819 820 822 822 823 824 825 826 828 829 830 832 833 834 835 837 838 839 840 841 842 843 844 845 846 847 848 848 848 848 848 848 848 848 848 848 847 846 846 845 845 845 845 844 845 846 846 847 848 849 850 850 850 850 850 851 850 849 849 849 849 849 849 849 849 849 849 849 849 849 849 849 849 849 849 849
816 817 818 818 819 819 819 819 819 820 821 822 823 825 826 827 828 829 830 831 832 833 835 836 837 838 840 841 841 843 844 845 846 847 848 848 848 848 848 848 848 848 848 848 848 847 847 846 846 846 845 845 844 845 846 846 848 849 849 850 850 851 851 851 851 850 849 849 849 849 849 849 849 849 849 849 849 849 849 849 849 849 849 849 849
816 817 819 819 820 820 820 821 820 820 821 822 823 825 826 828 829 830 831 832 833 834 835 836 838 839 840 841 842 844 845 846 847 847 848 848 848 848 848 849 848 849 849 849 849 848 847 847 846 846 846 845 844 846 847 847 848 849 849 850 850 851 851 851 851 850 850 849 849 849 849 850 850 850 849 849 849 850 850 850 850 850 849 849 849
815 817 819 820 820 821 822 822 822 822 822 823 824 825 827 828 829 830 831 832 833 834 836 837 838 840 842 843 844 845 846 847 847 847 848 848 848 849 849 849 849 849 849 849 849 848 848 847 846 846 846 845 845 847 847 848 848 849 849 850 851 851 851 851 851 851 851 850 850 850 850 850 850 850 850 850 850 850 850 850 850 850 849 849 849
815 816 818 819 821 822 822 823 824 824 824 825 826 827 828 829 830 831 832 832 833 835 836 837 840 841 842 843 844 845 846 847 847 848 848 848 849 849 849 849 849 849 849 849 849 848 848 847 846 846 846 845 846 847 848 848 849 849 849 850 851 851 852 852 851 851 851 851 851 851 851 851 851 851 851 851 850 850 850 850 849 849 849 848 848
814 816 817 819 821 822 823 824 825 825 826 827 827 828 829 830 831 832 832 833 834 835 837 839 840 842 842 842 844 845 846 847 847 848 848 849 849 849 849 849 849 849 849 849 849 848 848 848 847 847 846 846 846 846 848 848 849 849 849 850 851 851 852 852 852 851 852 852 852 852 852 852 851 851 851 851 850 850 849 849 849 848 848 847 847
814 816 817 819 821 822 824 824 825 826 827 828 828 829 830 830 832 832 833 834 834 836 838 839 840 841 842 842 844 845 846 847 847 848 848 849 849 850 850 849 849 849 849 849 849 849 848 848 848 847 847 846 846 846 848 848 849 849 849 850 851 851 852 852 852 852 852 852 852 852 852 852 851 851 850 850 850 850 849 848 848 847 847 847 846
814 816 818 819 821 822 824 825 826 827 827 829 829 830 831 831 832 833 834 834 836 837 838 839 840 841 842 843 844 845 846 847 847 848 848 849 849 850 849 849 850 850 849 849 849 848 848 848 848 848 847 847 846 847 848 849 849 850 850 850 851 851 851 851 852 852 852 852 852 852 851 851 851 850 850 850 849 849 848 848 847 847 847 846 846
813 815 818 819 821 822 823 825 825 827 828 829 829 830 832 832 833 834 834 836 837 838 838 839 840 841 842 843 844 845 846 847 847 848 848 849 849 849 849 850 850 850 849 849 849 848 848 848 848 848 847 847 847 847 848 848 850 850 850 850 851 851 851 851 851 852 851 851 851 851 850 850 850 849 849 849 848 848 847 847 847 846 846 846 845
813 815 817 818 821 822 823 825 826 827 828 829 830 831 832 833 834 835 836 837 838 838 838 840 841 842 843 843 844 845 846 847 847 848 849 849 849 849 849 850 850 850 849 849 849 849 849 849 848 848 848 848 848 848 848 848 849 850 850 850 850 851 851 851 851 851 851 851 851 850 850 849 848 848 848 848 848 847 847 846 846 846 845 845 845
813 815 817 818 820 821 823 824 826 827 827 829 830 831 833 833 835 835 837 837 838 838 839 840 841 842 843 843 844 845 846 847 847 848 848 849 849 849 849 850 850 850 849 849 849 849 849 849 849 849 849 849 849 849 849 849 849 850 850 850 850 851 851 851 851 851 851 851 850 850 849 849 848 848 847 847 847 846 846 845 845 845 844 844 844
813 815 816 818 819 821 823 824 826 827 828 829 830 832 833 834 835 836 837 837 838 839 839 840 841 842 843 844 844 845 846 847 847 848 848 848 848 849 850 850 850 850 850 850 850 850 850 850 850 850 850 850 850 850 849 849 849 850 850 850 850 851 851 851 851 851 851 851 850 850 849 849 848 848 848 847 846 845 845 845 845 844 844 843 843
813 814 816 817 819 821 822 824 826 826 828 829 830 832 833 834 835 836 836 837 838 839 840 841 841 842 843 844 845 845 846 847 847 847 847 848 848 849 850 850 850 850 850 850 850 850 851 851 851 851 851 851 851 850 850 849 850 850 850 850 850 850 850 851 851 851 851 851 850 850 849 848 848 848 848 847 846 845 845 844 844 844 843 843 842
812 813 815 817 819 820 821 823 825 826 828 829 830 832 833 834 834 835 836 837 838 839 840 841 842 843 843 844 845 845 846 847 847 847 847 848 848 849 850 850 850 850 850 851 851 851 851 852 852 852 851 851 851 851 850 850 850 850 850 850 850 850 850 850 850 850 851 851 850 849 849 848 848 848 848 847 846 846 845 845 844 843 843 842 841
812 813 814 817 818 819 821 823 824 826 828 828 830 831 832 833 834 835 836 837 838 839 840 841 842 842 843 844 844 845 846 846 847 847 847 848 848 849 850 850 851 851 851 851 851 851 852 852 852 852 851 851 851 851 851 851 850 850 850 850 850 850 850 850 850 850 850 850 849 849 849 848 848 848 847 847 846 845 845 844 843 843 842 842 841
810 813 814 816 818 819 821 822 824 826 827 829 830 831 832 833 833 834 835 837 838 839 840 841 842 843 843 844 844 845 845 846 847 847 848 848 849 850 850 850 851 851 851 851 852 852 852 853 853 852 851 851 851 851 851 851 851 851 850 850 851 850 850 850 850 850 849 849 849 848 848 848 848 847 847 847 845 845 844 843 843 842 842 841 840
809 812 814 815 817 819 821 822 824 826 827 829 830 831 832 833 834 834 835 837 838 839 840 841 842 843 843 844 844 845 846 846 847 847 848 848 849 849 850 850 851 851 852 852 852 853 853 854 853 853 852 852 852 852 852 851 852 852 851 853 853 853 852 850 849 849 848 848 848 848 848 847 847 847 846 845 845 844 844 843 843 842 842 841 840
809 811 813 815 816 818 820 822 824 825 827 828 830 831 832 833 834 835 836 837 838 839 840 841 842 843 843 844 844 845 846 846 847 847 848 848 849 849 850 850 851 851 852 852 852 853 853 853 853 853 853 853 852 852 852 852 852 852 852 854 854 855 858 854 849 848 848 848 848 848 847 847 846 846 845 844 844 844 843 843 843 842 842 841 840
809 810 812 814 816 817 819 821 823 825 826 828 829 830 831 832 833 835 836 837 838 839 840 841 842 842 843 843 844 845 845 846 847 847 848 848 849 849 850 850 851 851 851 852 852 853 853 853 853 853 853 853 853 853 853 853 853 853 853 854 855 858 860 854 851 850 847 847 848 847 847 846 845 845 844 844 843 843 843 843 843 842 841 840 840
808 809 811 813 815 817 818 821 823 824 826 827 828 830 831 832 833 834 835 835 837 838 839 840 841 842 842 843 844 845 845 846 846 847 848 848 849 850 850 850 850 851 851 852 852 852 853 853 853 854 854 854 854 853 853 853 853 853 853 853 854 857 855 853 854 854 849 847 847 847 846 845 845 845 844 844 843 843 843 843 842 842 841 840 839
807 809 811 812 814 816 818 820 822 823 825 826 827 829 830 831 833 833 834 835 836 837 838 839 840 841 842 843 844 844 845 846 846 847 847 848 849 849 850 850 851 851 851 852 852 852 853 853 853 854 854 854 854 854 853 853 853 853 853 852 852 852 852 852 854 855 854 850 847 847 847 845 845 845 845 844 843 843 842 842 841 841 841 840 838
806 808 810 811 813 815 817 819 821 822 824 826 827 828 830 831 832 833 834 835 835 836 838 839 839 840 842 843 843 844 845 845 846 846 847 848 848 849 849 850 850 850 851 851 852 852 853 853 853 854 854 854 854 854 854 853 853 853 853 853 852 852 852 852 852 853 854 854 850 847 846 846 845 845 845 845 843 842 842 841 841 840 840 839 838
804 807 808 810 811 814 817 818 820 822 823 825 826 827 829 830 832 833 834 835 835 836 837 838 839 840 841 842 843 843 844 845 846 846 847 847 848 848 849 849 850 850 851 851 851 852 853 853 853 853 854 853 854 854 853 853 853 854 853 853 852 852 852 851 851 851 851 854 853 849 847 847 845 845 845 844 843 842 841 841 840 839 838 838 838
802 805 807 808 810 813 815 817 819 821 822 824 826 827 828 830 831 832 833 834 835 835 837 837 838 839 840 841 842 843 844 844 845 846 846 846 847 848 848 849 850 850 850 851 851 852 852 853 853 853 853 853 853 853 853 853 853 854 854 853 852 852 852 851 851 850 850 852 853 851 849 848 847 845 844 843 842 842 841 841 840 838 837 837 837
800 803 805 806 809 811 814 816 818 820 821 823 825 826 828 829 830 831 832 833 834 835 836 837 838 839 839 840 841 842 843 843 844 845 845 846 846 847 848 849 849 850 850 850 851 851 852 852 852 853 853 853 853 853 853 853 853 853 853 853 852 851 851 851 850 850 850 850 851 852 850 849 848 846 844 843 842 842 841 841 839 838 837 837 837
Wind_Speed
12 13 14 12 13 13 12 14 14 15 16 15 15 15 15 14 14 14 14 14 14 15 15 15 16 16 16 15 15 16 16 16 16 17 19 20 20 20 20 21 20 20 20 21 21 21 21 21 18 17 15 15 16 19 20 19 18 18 17 19 20 21 22 22 23 23 21 20 20 20 20 20 20 19 19 18 18 17 16 16 17 17 15 15 15
14 14 14 13 13 13 13 14 15 15 15 15 15 15 14 14 13 13 14 14 15 16 15 15 16 17 16 16 16 16 16 15 15 17 18 18 18 19 19 19 20 20 20 20 21 21 22 22 19 19 17 15 15 17 19 18 18 18 17 17 18 19 20 21 22 22 20 20 19 18 18 18 18 18 18 17 17 17 15 16 17 16 15 14 14
15 15 14 13 14 14 13 13 14 14 15 15 14 14 14 14 14 14 14 14 15 15 15 15 17 17 16 17 17 16 16 15 15 17 18 17 18 18 19 19 20 21 20 20 20 21 21 21 20 20 19 16 16 16 18 18 17 17 17 17 18 18 19 20 20 20 20 19 19 19 19 18 17 17 17 17 17 17 16 16 16 15 15 14 14
16 16 14 14 15 15 13 13 14 14 15 14 14 14 14 14 14 15 15 14 14 15 15 16 17 17 17 17 17 16 16 16 16 16 16 17 18 18 18 19 19 20 19 19 19 19 20 21 20 21 20 18 17 17 18 18 17 17 17 17 17 17 17 18 18 19 19 18 19 20 19 18 18 17 17 17 17 17 16 16 15 15 15 14 14
19 16 14 14 15 16 14 13 14 14 14 14 14 14 15 15 15 15 15 15 15 15 15 15 16 16 17 17 17 17 17 17 16 15 15 17 17 17 17 18 19 18 18 19 18 18 19 20 21 21 19 18 18 17 17 18 18 18 17 17 16 15 15 15 16 17 17 16 17 19 19 19 18 17 17 17 16 16 16 15 15 14 14 13 13
20 17 15 14 14 17 16 14 14 14 14 14 14 14 15 15 15 15 15 16 15 15 15 15 15 15 16 16 17 17 18 17 16 14 15 16 17 17 17 17 18 18 18 18 18 18 18 19 20 21 19 18 17 17 17 17 18 18 17 16 16 15 14 14 16 17 16 15 14 16 17 17 17 16 15 15 15 15 15 15 14 13 13 13 12
20 18 16 15 14 16 16 14 14 14 14 14 14 14 14 15 15 14 14 15 15 15 15 15 14 14 16 16 17 17 18 17 16 15 15 15 16 16 16 16 16 18 18 17 18 19 18 19 21 21 20 19 17 17 16 16 17 18 17 16 15 14 14 13 15 16 16 16 13 12 16 16 16 15 15 14 14 14 14 13 12 11 10 11 11
20 18 17 16 15 15 16 15 14 14 14 14 15 15 14 14 14 14 13 14 14 14 15 15 14 14 15 16 16 17 17 17 16 16 15 14 14 15 15 14 15 17 17 17 18 19 19 19 20 20 20 19 18 17 16 16 17 17 16 15 15 15 15 14 14 13 13 16 12 11 14 16 16 14 13 13 13 13 14 13 12 10 10 10 10
20 18 18 18 16 15 15 16 15 15 14 14 15 14 14 14 14 14 13 13 14 14 14 14 14 14 15 16 16 16 17 17 17 16 15 14 13 15 15 14 14 16 16 17 17 18 19 18 18 19 19 19 18 17 16 16 15 14 15 16 16 16 15 15 14 12 11 14 12 11 14 15 15 14 13 13 12 12 12 12 12 12 11 10 9
20 18 19 17 17 16 15 16 16 15 14 14 14 14 13 14 14 14 13 13 14 13 13 14 15 14 15 16 16 15 15 16 16 16 15 14 13 14 14 14 14 15 16 17 17 17 17 17 17 17 17 17 17 16 16 15 14 14 15 15 15 13 12 11 11 12 11 13 14 13 13 13 13 12 12 12 12 12 11 11 11 11 10 9 9
20 19 19 17 17 16 16 16 15 15 14 14 14 14 13 13 14 14 13 13 14 14 13 14 14 15 16 16 16 15 15 16 16 15 15 14 13 13 12 13 13 14 15 16 17 17 16 16 16 16 15 15 14 14 15 15 15 15 14 13 12 11 10 10 10 13 12 13 14 12 10 11 13 12 11 11 11 11 10 10 10 9 9 8 8
21 20 19 18 17 17 17 15 15 15 14 14 13 13 12 12 13 13 13 13 14 14 13 14 14 15 16 16 15 14 14 15 15 15 15 14 13 12 11 12 12 13 15 16 16 16 15 16 17 16 15 14 13 13 14 15 16 15 13 12 11 12 13 13 12 14 13 12 10 7 7 10 12 11 10 10 9 9 9 9 8 8 8 7 7
22 20 19 18 17 17 16 15 15 14 14 14 13 13 12 11 12 12 12 13 14 14 13 13 14 14 15 15 14 14 14 15 15 15 15 14 13 12 11 11 11 13 14 14 14 14 14 15 17 17 15 14 13 13 14 15 15 14 12 11 11 12 13 14 12 13 14 12 8 6 6 8 9 9 9 9 9 8 7 7 7 7 6 6 5
22 19 20 19 17 17 16 15 14 14 14 13 14 13 12 12 11 12 12 12 13 13 13 12 13 15 15 15 14 14 14 14 14 14 15 15 14 12 12 11 10 12 12 12 13 13 14 15 16 16 15 14 13 12 13 15 15 14 13 11 11 12 11 12 11 13 14 11 8 6 6 6 7 7 7 7 8 7 6 6 6 6 5 4 4
20 20 20 19 18 17 16 16 15 14 13 13 13 13 12 12 11 12 12 12 13 13 14 12 13 15 14 14 14 14 13 14 14 13 14 14 12 12 11 11 11 12 11 12 13 13 14 14 15 15 14 14 13 12 12 13 14 14 13 12 12 11 10 10 10 12 12 10 7 5 6 6 6 6 6 6 7 7 6 5 5 5 4 4 3
21 21 20 20 18 17 16 16 15 14 14 13 13 12 12 13 12 12 12 13 12 13 14 13 14 15 13 13 13 13 13 13 13 12 13 13 11 11 11 11 11 12 11 12 13 12 12 13 13 13 13 13 12 11 11 11 12 12 12 12 11 10 9 8 8 11 11 8 6 4 6 6 5 5 6 7 6 6 6 5 5 3 2 2 1
21 20 20 19 18 18 17 15 14 13 13 13 12 13 12 12 13 13 13 13 13 14 14 13 14 13 12 13 13 13 13 13 13 11 12 12 10 10 10 11 11 12 12 12 12 11 11 11 12 12 12 12 11 10 10 10 11 11 11 12 11 10 9 8 9 10 8 6 5 4 5 5 5 5 6 7 6 5 6 5 3 2 2 2 2
20 20 18 18 18 17 16 16 14 14 14 14 13 12 12 12 13 13 13 13 14 14 14 13 13 12 12 13 13 13 13 13 13 12 12 13 11 10 10 11 11 11 12 11 11 11 11 11 12 12 12 11 10 10 9 9 10 10 11 12 11 9 8 9 10 9 6 4 4 3 3 3 4 5 6 5 6 6 5 4 2 2 3 4 3
20 19 17 17 17 16 15 15 14 14 14 14 14 13 12 12 13 13 13 13 14 14 13 13 12 12 12 13 13 13 13 13 13 13 12 13 13 11 11 11 10 10 11 10 10 10 10 11 11 11 11 10 10 10 9 10 10 11 11 11 10 8 8 9 8 7 6 3 2 3 3 3 2 3 5 6 6 6 5 4 3 3 3 3 2
19 19 17 16 16 15 14 14 13 13 13 13 14 14 13 12 13 14 13 13 13 14 13 12 12 12 13 13 13 13 14 13 14 13 12 13 12 11 11 11 10 10 10 10 9 9 9 9 9 9 8 8 9 9 9 9 10 10 10 10 9 7 9 8 6 8 6 3 3 4 3 2 2 3 5 6 6 6 5 4 2 2 1 1 1
18 18 17 16 15 15 15 14 13 13 14 14 15 15 14 13 14 14 14 13 13 13 12 12 13 12 13 13 13 13 14 13 14 14 13 13 12 10 10 10 9 10 10 9 9 9 8 8 7 7 7 7 6 7 8 8 8 8 8 6 5 5 6 5 6 9 5 4 3 4 3 3 3 4 6 7 7 5 4 3 2 1 1 1 1
18 18 16 14 14 16 15 15 14 14 14 14 16 16 16 16 16 17 15 14 13 12 12 13 14 13 12 12 13 12 12 13 12 12 12 12 11 10 9 9 9 9 9 8 9 8 7 7 7 6 5 4 4 6 6 7 6 5 4 3 3 3 3 2 8 8 5 5 4 4 4 4 4 5 6 7 7 6 4 3 2 1 1 0 1
17 17 17 14 15 16 15 15 15 15 14 14 15 16 17 17 17 18 18 16 14 14 13 14 15 13 12 12 12 11 10 11 11 10 9 10 10 9 9 9 9 9 8 8 8 7 6 6 5 5 4 3 3 4 4 4 4 3 3 3 3 5 4 9 12 6 5 4 5 6 6 5 5 6 5 6 7 7 6 3 1 1 1 1 1
17 18 18 16 15 16 15 15 15 15 15 15 15 16 17 17 17 18 18 17 16 16 15 14 14 14 13 11 11 11 9 9 9 8 8 9 9 10 10 9 9 9 9 8 7 6 5 5 5 5 4 3 3 2 2 2 2 3 1 1 2 6 10 13 9 4 4 5 7 8 7 7 7 6 6 6 7 7 5 3 3 3 2 1 1
18 18 19 17 16 16 15 15 15 15 16 16 16 16 16 17 18 17 17 17 17 16 15 14 14 14 12 11 11 11 8 8 8 8 9 9 9 10 9 9 10 9 9 8 6 6 4 4 3 4 4 4 4 3 2 2 2 2 1 3 8 13 14 10 6 5 4 6 8 8 8 8 8 7 7 7 7 7 5 4 4 4 3 1 2
19 18 18 16 16 16 16 16 16 15 15 16 17 17 17 18 18 18 17 17 17 16 15 15 14 13 12 12 12 10 8 8 9 9 9 9 10 10 9 9 9 9 9 7 5 4 3 3 4 5 5 7 7 5 4 3 3 3 5 9 12 11 8 7 6 6 6 8 8 8 8 8 8 8 7 7 7 7 6 5 5 4 3 2 1
20 19 19 17 16 17 17 18 17 15 15 15 17 18 19 18 18 18 17 17 17 16 15 15 14 14 14 13 12 11 10 10 10 9 7 8 9 9 8 9 9 9 7 5 4 3 3 4 5 5 6 7 7 7 5 4 5 6 9 8 7 7 5 5 5 6 8 8 9 9 8 8 8 8 8 8 7 7 6 6 5 5 4 3 2
21 21 21 18 18 19 19 19 18 16 15 15 16 18 18 18 18 18 17 16 16 15 15 14 14 15 15 14 13 10 9 9 9 8 6 6 7 8 9 8 7 7 7 8 7 7 7 7 7 7 8 7 6 4 4 8 8 7 6 5 6 8 7 6 5 7 9 10 9 8 8 8 8 8 8 8 7 7 6 5 5 4 3 3 3
22 22 21 20 20 21 21 21 19 17 16 15 16 17 18 18 18 18 16 15 14 14 13 13 14 15 15 13 12 10 8 8 10 9 7 7 8 9 9 8 8 8 9 10 9 7 7 8 8 6 6 4 3 4 9 9 8 7 5 6 8 8 7 6 6 7 9 11 10 9 8 8 7 8 7 7 7 6 5 4 3 3 2 2 3
23 22 21 22 21 21 23 22 21 20 18 17 17 18 19 19 19 17 15 13 13 13 12 13 12 12 10 8 12 13 11 11 12 10 7 7 8 8 8 7 7 7 5 5 5 3 2 4 4 3 4 2 2 7 9 8 10 8 7 8 8 8 7 6 6 7 9 10 10 9 9 8 7 7 6 6 5 4 3 2 2 2 3 4 4
23 22 22 22 21 22 23 23 22 22 20 19 19 19 19 20 19 18 16 13 12 12 12 11 9 9 8 8 13 15 12 11 11 9 7 7 8 7 7 5 4 4 2 0 1 2 3 2 2 3 6 4 1 5 9 11 11 8 8 9 8 6 7 8 8 7 6 6 6 7 7 8 7 7 6 5 4 3 2 2 2 3 3 5 6
22 23 23 22 21 21 21 21 22 24 22 20 20 19 19 18 18 18 16 13 13 13 11 10 11 11 10 12 16 16 12 11 10 9 8 7 7 6 5 4 4 5 3 2 2 4 4 3 2 4 6 5 4 1 9 14 9 8 10 8 7 6 7 9 8 5 4 4 3 3 5 6 5 5 5 5 4 4 3 3 3 4 4 5 6
22 24 24 23 21 20 20 20 21 22 21 21 20 19 18 18 19 18 17 15 14 13 12 12 13 12 11 14 16 15 13 12 10 10 8 8 7 5 5 4 5 5 4 2 1 1 2 1 1 4 5 3 2 4 6 13 10 10 11 6 5 7 7 8 9 5 2 3 3 2 3 4 3 4 4 3 3 3 4 4 4 4 5 6 6
22 24 24 22 21 20 20 21 21 21 21 22 20 19 19 18 18 17 17 16 14 14 14 13 12 12 12 12 13 12 12 12 10 9 8 9 8 6 5 5 4 4 3 2 2 3 3 1 1 3 4 2 1 5 2 11 14 11 9 6 5 6 8 9 9 6 3 3 2 1 2 4 3 3 4 2 2 2 3 4 4 5 6 6 7
23 24 24 23 22 22 20 21 23 22 22 23 21 19 19 18 17 17 16 15 15 16 15 13 13 13 12 11 12 11 11 10 9 9 9 8 7 7 6 5 5 3 3 3 3 3 3 3 3 3 2 1 3 8 4 10 14 10 7 7 6 6 9 8 8 7 5 4 1 3 3 3 2 2 3 2 2 3 3 4 4 6 7 7 8
24 24 24 24 23 23 21 21 24 23 23 22 20 19 18 17 17 17 15 16 17 15 14 13 13 12 12 12 11 11 11 9 8 9 8 7 7 7 5 4 6 4 3 4 3 3 4 5 5 5 4 3 6 11 5 7 11 9 6 6 6 5 7 7 7 8 7 6 5 4 4 4 2 2 4 4 4 4 4 4 4 6 7 7 8
24 25 25 25 23 23 22 22 23 23 23 22 21 20 19 18 17 17 17 19 18 14 15 15 12 12 12 12 11 11 11 8 8 8 6 7 8 8 6 5 5 4 4 5 4 4 4 4 5 6 7 6 8 11 7 4 6 6 6 5 4 4 4 6 7 6 6 6 7 7 8 7 5 3 3 6 6 6 6 6 5 6 7 8 9
24 25 25 25 25 25 23 23 23 22 22 22 23 22 20 19 17 18 19 20 19 18 19 17 13 13 12 12 11 11 10 7 6 7 7 8 8 8 7 5 5 3 4 6 6 6 5 3 4 5 6 8 9 11 9 2 5 2 5 6 3 2 1 2 5 4 5 7 8 9 9 9 8 5 4 5 6 8 9 8 7 7 8 10 11
24 23 24 24 26 26 25 24 23 22 20 19 23 24 20 18 16 16 18 19 20 20 19 17 15 13 12 12 11 10 9 7 7 8 8 8 8 8 7 5 4 4 4 5 5 5 6 5 4 5 6 7 8 11 8 2 1 2 6 7 4 4 1 0 2 4 8 8 9 9 7 6 8 8 6 5 7 10 10 9 9 10 11 11 11
23 22 25 24 23 25 26 24 22 22 19 18 23 24 19 17 16 16 18 20 19 19 18 16 15 14 13 13 11 11 10 8 8 9 9 8 8 9 7 5 4 5 6 5 4 4 5 6 4 5 7 6 8 10 7 3 3 1 8 8 5 5 2 2 4 5 6 6 7 8 6 5 6 6 5 6 8 8 7 7 10 12 13 12 11
23 23 26 25 23 26 26 24 23 23 20 18 22 21 17 16 16 15 16 18 18 17 18 16 14 14 14 14 12 11 11 10 10 10 10 9 9 8 7 7 7 6 7 6 5 5 5 5 4 5 7 7 9 10 8 6 5 4 4 4 4 5 3 4 6 4 3 3 4 4 5 6 5 4 5 8 9 7 6 8 11 13 14 13 11
24 24 25 25 26 26 25 24 24 23 20 20 21 18 16 17 16 14 14 16 16 16 17 17 15 14 13 13 12 11 12 11 11 11 10 10 10 8 7 8 7 7 7 6 5 4 4 4 5 4 5 7 7 9 9 8 6 5 4 3 1 4 3 3 2 2 3 2 6 9 8 5 4 4 6 9 10 7 6 8 11 12 12 11 10
25 24 24 25 27 26 24 25 25 23 20 19 19 16 17 17 16 17 15 14 15 15 17 17 15 14 14 13 11 11 12 12 11 11 10 10 10 9 8 7 6 6 6 6 5 2 2 4 5 3 4 6 5 6 9 9 6 5 5 3 2 2 2 3 5 6 6 4 6 11 11 9 6 6 8 10 9 9 9 9 11 12 10 9 8
23 23 24 24 26 26 25 25 24 23 20 19 19 16 16 17 16 17 16 14 15 16 17 16 15 15 15 13 11 10 11 11 11 10 10 10 10 9 8 7 6 6 6 5 4 1 1 4 5 4 5 6 6 7 8 10 7 4 4 1 1 2 1 4 9 9 7 6 7 10 12 11 9 9 10 8 8 11 11 10 13 13 10 10 8
22 24 25 24 25 26 25 25 23 22 19 18 19 16 14 18 18 16 15 15 16 17 18 17 16 15 15 14 12 11 11 11 11 10 9 9 9 9 9 8 7 6 5 4 3 2 2 2 3 4 5 5 6 7 7 10 9 5 3 0 1 2 1 4 8 6 7 9 8 9 10 10 10 10 10 7 7 12 13 11 13 12 9 9 9
22 24 26 24 25 26 25 25 23 23 20 17 18 17 15 19 20 17 17 17 17 19 20 19 18 16 14 14 12 13 13 11 11 10 8 9 10 9 9 8 7 7 4 3 3 2 3 2 0 1 3 3 4 5 6 8 8 5 4 1 1 0 2 3 4 3 8 9 7 8 9 9 9 7 7 7 10 15 14 12 13 11 8 9 9
23 25 25 24 26 26 25 25 23 23 22 18 18 18 17 19 19 17 19 20 19 20 20 19 19 17 14 14 13 13 14 12 11 11 9 10 11 10 9 8 8 8 5 3 4 3 2 2 3 2 0 1 2 3 5 7 6 5 6 3 1 1 1 1 1 1 4 5 8 10 9 8 8 7 8 10 15 18 14 12 12 11 9 9 9
23 25 25 25 28 27 26 25 23 24 23 20 19 19 18 17 17 17 18 19 18 18 19 18 18 17 16 16 15 14 13 13 13 12 11 11 12 11 11 9 9 9 5 4 5 3 3 4 5 4 2 2 0 2 3 4 5 6 7 4 2 2 2 2 1 1 1 2 7 9 7 8 10 10 9 11 16 15 11 11 10 10 9 9 9
25 25 25 26 30 29 26 26 24 24 24 21 20 19 19 18 16 16 16 17 16 16 17 17 17 17 16 16 16 15 14 15 13 12 11 10 10 12 12 11 9 9 7 5 5 5 6 6 6 5 4 4 3 1 2 3 4 5 6 6 5 3 2 3 3 3 2 2 3 5 6 8 10 10 8 11 14 11 11 11 10 9 8 8 9
27 26 25 27 30 29 27 26 24 24 25 23 22 20 20 19 16 15 16 16 15 16 17 17 17 17 17 16 17 16 15 14 13 12 11 9 9 11 12 11 9 9 7 5 6 6 7 6 5 5 5 4 4 3 3 3 4 6 7 7 6 3 2 2 2 4 3 3 4 2 4 6 7 7 8 10 12 10 11 11 9 8 6 6 8
28 26 26 29 30 29 28 27 24 24 25 25 24 22 21 21 17 15 16 16 17 18 16 15 16 17 17 15 15 16 15 14 13 13 12 10 9 9 10 11 9 8 8 7 7 6 6 6 5 5 5 5 4 4 4 4 5 7 7 6 6 5 5 4 5 6 3 3 4 1 3 8 8 5 6 8 10 9 8 7 6 5 4 6 7
Wind_Direction
159 148 135 130 127 123 119 121 118 119 117 117 119 116 113 109 108 107 108 111 112 111 109 105 102 100 98 98 93 90 92 93 92 93 94 95 94 94 97 100 102 102 100 100 100 102 105 104 104 105 102 102 104 104 101 99 100 100 101 102 102 104 105 107 108 106 105 104 104 105 107 108 109 108 108 110 110 109 111 111 109 109 112 111 110
162 149 137 135 130 125 122 121 118 117 116 116 114 111 111 111 111 110 115 115 113 114 109 102 102 101 99 99 96 95 95 95 94 94 94 93 93 94 96 98 102 104 103 100 100 104 106 105 107 109 106 105 104 104 101 99 100 100 99 100 99 100 103 105 106 106 106 105 103 103 104 106 107 106 107 108 107 107 107 107 108 108 107 106 106
158 151 143 141 133 129 126 122 119 118 116 115 114 114 114 113 113 115 118 113 110 112 108 103 103 103 101 101 101 103 102 100 96 94 93 93 93 93 95 97 101 105 105 101 100 103 105 107 109 109 109 111 107 104 103 100 100 100 100 100 99 99 103 105 105 105 103 102 103 103 103 103 103 104 105 107 109 109 108 108 109 108 108 107 107
157 152 148 149 141 132 128 127 122 120 118 118 118 117 116 115 115 115 113 108 109 111 108 105 106 106 105 106 106 107 105 101 96 96 97 97 96 94 96 99 101 105 105 102 101 103 106 109 110 108 109 113 110 106 105 103 104 102 103 103 102 101 102 103 103 101 98 99 103 105 104 102 100 101 102 103 106 107 107 108 108 108 108 108 108
156 151 150 149 146 138 130 132 128 125 123 121 119 118 118 117 115 113 111 110 113 112 109 107 111 111 109 110 109 108 106 102 99 101 102 101 100 97 99 102 102 103 103 102 103 105 106 108 109 109 109 110 110 108 107 108 109 108 108 107 105 102 99 98 100 100 97 96 101 105 105 104 102 101 102 103 104 106 107 108 108 109 110 110 111
153 148 149 144 146 143 135 135 132 129 127 123 119 118 119 117 116 115 115 114 117 115 112 110 111 112 111 111 110 109 107 106 106 105 102 102 101 98 99 101 102 103 102 103 104 106 106 107 110 112 113 111 110 110 112 113 113 113 111 107 102 99 95 97 104 108 106 99 98 105 108 107 106 105 105 105 106 107 108 107 107 108 112 113 112
147 144 146 145 147 146 142 138 134 132 129 126 123 122 118 116 116 117 118 118 118 115 112 112 111 110 111 111 110 110 110 110 109 105 101 99 99 98 98 99 102 104 104 105 106 107 106 108 111 113 114 114 113 114 118 120 118 115 111 106 103 99 96 98 106 111 111 110 104 105 112 112 110 110 109 108 108 109 109 107 106 106 111 113 111
142 147 149 149 147 146 144 137 135 134 130 130 128 125 121 117 117 118 120 119 116 112 110 113 113 111 112 113 111 112 113 113 111 108 103 99 100 101 100 100 103 104 105 106 108 110 109 109 111 111 112 113 113 116 122 124 123 117 114 113 111 108 105 101 103 103 109 120 119 111 114 113 111 110 110 110 108 109 110 111 109 103 103 110 111
146 153 152 149 144 144 142 138 136 133 130 130 128 126 124 121 119 119 120 118 115 112 111 113 114 112 112 114 113 114 115 114 112 108 105 102 102 102 101 101 103 105 108 108 108 110 111 110 109 109 109 112 115 120 125 126 123 119 119 119 114 111 108 105 100 95 110 129 123 112 115 113 110 110 113 113 111 113 113 117 121 118 116 118 115
150 154 150 145 141 141 138 138 135 133 133 128 126 126 125 125 123 122 122 119 117 114 112 113 114 113 111 113 113 113 114 114 112 108 106 102 100 100 102 103 103 106 110 112 112 111 111 110 109 109 110 114 118 124 129 128 125 124 124 121 116 112 108 108 108 102 116 133 120 110 114 112 110 110 116 117 119 125 122 122 127 130 131 125 118
149 151 145 141 139 138 137 139 138 137 135 128 127 127 129 131 128 126 126 122 120 118 116 116 117 116 114 114 114 113 114 114 112 109 106 102 100 99 101 102 105 108 111 114 116 114 111 111 111 109 112 117 123 128 131 130 129 129 126 120 115 111 105 105 122 122 124 135 126 117 115 114 111 109 114 114 117 123 120 118 121 123 122 117 113
146 145 138 137 136 137 138 140 141 139 135 131 130 130 131 131 128 129 130 127 124 121 120 120 119 117 113 112 113 114 116 116 115 112 109 107 103 102 103 103 105 109 113 116 116 115 113 114 113 111 113 116 122 130 134 135 134 132 126 119 113 108 104 102 120 133 133 139 138 123 113 117 116 115 117 117 116 116 116 117 117 114 112 112 109
141 138 134 135 134 136 138 139 140 138 138 137 135 134 133 130 128 131 132 128 124 120 119 121 120 116 113 112 114 115 116 118 118 115 115 115 110 105 105 106 109 112 115 118 117 117 117 118 117 116 116 114 117 126 135 140 139 135 129 122 117 113 111 111 120 133 138 140 134 114 104 116 122 126 127 125 124 121 121 118 116 113 106 104 101
136 135 137 135 134 136 137 138 137 137 138 139 138 137 139 137 132 133 132 127 124 121 121 121 120 117 115 116 118 117 117 119 119 121 122 119 115 110 110 113 118 120 120 121 122 121 122 123 121 120 118 114 114 121 132 142 144 140 132 125 119 116 120 130 131 135 145 147 138 117 101 114 127 133 136 135 131 127 121 111 106 101 97 91 86
135 137 138 136 136 138 138 137 137 138 139 138 138 138 141 140 136 135 133 129 125 124 124 125 125 120 118 119 120 121 120 118 120 125 124 120 118 116 118 120 121 123 124 125 125 124 125 124 122 123 120 115 115 120 130 140 144 139 133 128 126 125 127 138 143 147 154 153 151 130 95 106 126 140 146 142 133 127 117 105 97 90 89 86 74
135 137 137 137 137 136 136 138 141 143 140 138 137 137 140 139 138 137 135 132 127 124 125 128 127 123 122 122 122 124 123 120 120 124 122 120 122 124 124 121 122 123 125 127 125 124 123 121 121 122 120 120 119 121 130 138 142 140 139 137 134 132 128 126 134 155 165 160 159 132 94 97 116 140 142 139 135 129 120 112 103 94 94 93 64
133 134 135 136 135 135 139 140 143 144 139 137 139 140 141 140 139 139 137 133 129 128 127 126 123 122 127 128 127 126 123 120 121 125 125 126 128 131 128 125 127 127 127 128 126 125 121 118 118 118 118 119 118 121 126 136 143 143 146 146 140 130 121 114 118 147 168 169 160 121 88 85 107 135 142 143 132 117 112 111 107 99 102 88 53
127 129 130 131 132 138 146 145 146 146 141 141 141 143 145 142 141 141 140 135 132 132 130 126 124 126 130 130 130 129 126 123 124 128 129 131 135 135 132 131 130 128 129 130 129 126 121 120 120 119 119 117 116 118 120 128 137 142 146 146 144 132 122 121 120 138 161 161 142 84 60 64 104 145 152 144 123 118 115 108 109 92 76 63 47
126 129 129 132 139 145 149 145 148 148 145 144 142 143 144 143 141 141 140 137 133 132 134 132 131 130 126 125 126 127 126 124 125 129 131 134 138 135 132 132 131 132 133 133 132 129 127 127 128 126 126 125 122 121 123 128 133 139 145 148 149 141 135 127 119 151 165 138 85 44 34 46 104 147 148 139 124 118 106 90 88 86 71 58 41
127 132 133 139 147 147 145 142 145 146 145 146 144 140 138 140 139 139 138 137 134 133 137 134 132 128 124 123 123 124 124 124 125 129 135 138 140 134 131 132 134 138 136 135 135 135 135 135 135 135 136 132 127 128 130 133 135 139 142 146 147 140 144 130 125 168 160 94 44 24 31 55 110 139 142 133 114 98 98 97 85 90 51 17 358
128 135 138 145 150 147 144 143 144 145 146 146 143 137 136 143 140 138 138 137 137 136 137 134 131 127 126 128 125 123 122 124 125 128 137 141 141 136 132 133 134 135 133 138 144 142 141 139 138 136 133 127 125 131 135 138 139 142 142 146 146 137 142 125 144 162 124 58 35 30 59 83 112 140 147 131 116 115 117 114 88 100 74 11 324
130 137 143 150 152 147 144 140 141 144 146 146 144 142 146 150 143 142 142 140 140 138 138 134 130 129 131 132 128 125 122 124 125 128 136 141 144 142 138 136 135 134 134 143 150 150 148 143 142 140 136 133 137 138 138 140 136 135 127 116 116 93 60 105 162 152 84 47 49 63 83 91 113 133 144 133 132 148 138 113 68 79 116 290 283
131 139 149 154 152 146 141 139 142 145 146 147 146 144 148 150 146 146 144 142 143 138 137 134 132 135 136 133 128 127 129 131 130 131 137 141 144 147 148 143 139 137 141 150 154 159 158 156 161 165 173 181 175 162 156 153 147 147 128 105 82 44 59 138 151 130 57 53 70 82 93 100 113 121 134 128 128 136 131 136 162 203 216 248 263
136 141 147 151 153 145 139 141 144 146 147 148 146 144 144 145 145 145 143 143 144 140 138 137 137 138 136 133 128 125 129 129 132 143 145 146 151 152 151 147 146 145 149 157 162 170 173 181 193 201 220 223 222 221 213 199 158 150 154 7 49 81 119 136 124 66 52 80 88 93 100 110 114 116 125 124 125 129 130 155 177 181 178 188 270
142 143 145 150 154 147 145 148 147 147 149 148 145 144 143 144 146 147 145 145 146 143 142 142 140 138 137 136 134 132 135 135 145 159 149 146 148 145 145 147 150 151 153 161 168 176 191 204 218 238 257 267 266 265 283 248 152 125 73 84 106 116 119 113 73 54 91 97 98 102 109 115 114 118 119 122 127 131 141 152 146 143 148 184 259
145 145 147 153 155 152 151 152 149 147 149 149 146 144 144 146 148 148 147 147 146 145 146 145 142 141 141 140 139 141 152 152 148 147 138 139 139 136 142 146 150 155 157 163 169 182 217 250 279 286 293 292 277 271 281 227 159 101 109 108 111 118 109 99 74 68 100 105 105 109 113 116 114 117 118 122 122 121 131 132 128 129 133 157 207
147 147 150 155 153 151 151 150 149 147 148 149 147 146 147 149 149 148 147 148 149 150 149 148 146 146 143 138 135 140 155 154 144 141 141 146 143 143 149 152 158 165 173 189 208 246 268 282 293 307 321 307 281 270 253 179 142 111 115 115 110 121 121 123 92 74 103 106 103 109 112 115 116 120 119 118 115 114 120 116 116 118 111 105 90
146 146 148 152 151 150 150 149 146 143 146 148 147 147 148 149 148 147 148 151 154 153 149 150 152 153 149 140 137 142 152 154 154 163 170 172 170 165 165 171 181 193 220 238 259 281 284 290 296 304 312 304 292 263 166 129 125 125 126 127 122 127 134 142 118 88 97 97 97 103 107 113 117 119 117 114 112 112 111 109 108 101 96 83 60
146 147 147 150 152 151 152 150 146 145 148 148 146 145 145 147 149 149 153 158 158 152 151 156 158 160 159 156 161 163 163 170 175 181 184 183 182 179 181 191 209 224 239 250 267 283 278 280 288 298 305 299 289 158 136 120 124 131 126 129 133 140 143 146 135 101 93 96 95 98 103 108 108 107 107 106 106 108 105 102 98 78 56 36 18
146 147 147 152 153 153 154 151 149 151 153 152 149 148 150 152 155 157 161 164 160 155 157 161 163 167 173 193 193 179 173 179 181 186 187 176 177 183 187 194 212 221 233 250 252 249 265 287 294 321 353 17 155 154 141 134 138 126 112 134 148 150 146 148 138 111 95 94 93 94 96 95 95 95 93 94 91 89 92 80 63 36 7 351 343
147 147 147 152 152 153 154 153 152 152 154 155 153 154 155 157 160 162 164 161 158 159 159 162 168 169 173 194 189 172 163 167 172 185 190 173 174 177 177 179 186 180 171 155 74 68 46 4 325 350 5 4 251 182 169 158 147 126 111 136 156 146 140 149 138 112 100 98 88 81 81 81 83 81 75 72 65 53 42 22 357 345 339 332 330
147 149 149 151 152 155 155 156 156 153 155 158 158 160 160 162 162 164 167 158 154 162 166 171 168 155 143 152 165 163 156 156 162 180 187 172 167 163 159 149 128 115 107 99 45 21 16 16 334 349 354 329 319 270 178 168 154 141 133 135 158 157 146 151 147 125 110 98 78 71 67 63 67 68 57 48 46 36 20 8 345 336 341 337 333
148 151 151 152 154 158 158 160 159 155 159 162 161 162 162 163 163 167 171 164 164 170 171 171 166 155 141 140 152 158 159 161 165 174 175 167 166 167 166 143 112 93 77 75 80 27 15 59 277 328 338 312 339 25 155 165 164 159 149 142 165 169 160 165 169 161 127 93 80 86 44 18 33 41 26 28 35 34 25 15 3 356 355 349 345
152 153 153 154 156 158 160 165 162 157 162 165 164 162 162 165 166 169 172 173 180 178 169 166 163 160 152 147 152 155 158 165 170 173 168 164 166 164 157 136 109 85 66 60 76 66 56 97 327 338 350 315 36 24 74 162 169 163 139 143 185 195 188 184 181 176 158 129 72 358 338 337 342 357 0 6 345 355 14 4 358 357 352 345 345
156 158 157 157 158 158 160 166 165 160 164 168 167 163 160 163 166 169 173 176 176 170 166 164 160 156 152 155 160 157 159 163 168 172 166 158 159 153 134 119 119 113 90 77 77 73 62 58 17 7 18 328 4 8 12 154 161 161 136 139 167 197 195 188 188 188 174 166 287 298 281 309 334 342 334 326 291 280 320 351 351 351 345 336 343
158 160 158 157 158 159 159 164 165 163 163 163 163 160 157 160 165 170 171 168 165 165 166 163 157 157 156 159 161 158 158 156 160 169 167 155 152 146 128 118 128 119 83 73 87 101 65 51 40 20 17 1 358 4 18 137 144 154 155 155 165 187 192 190 198 190 180 204 253 268 259 264 277 316 301 285 284 278 283 314 335 346 346 334 335
159 161 159 158 158 157 158 161 163 164 163 162 163 162 160 164 168 169 168 165 167 167 161 158 158 162 162 160 158 154 153 152 155 164 167 158 150 143 133 116 113 98 72 75 79 86 68 48 48 34 22 8 358 7 19 111 135 147 161 171 174 173 174 184 192 184 190 226 249 258 263 259 255 280 289 278 282 291 284 283 304 323 334 328 323
157 161 161 159 155 154 158 160 163 166 168 169 167 162 161 166 167 169 171 166 164 162 158 160 161 161 160 158 154 151 152 151 148 149 154 150 137 137 142 123 108 93 78 84 80 78 66 29 26 28 11 357 354 356 356 123 145 178 181 169 159 160 130 160 183 211 243 249 253 260 272 269 253 249 285 306 303 308 300 280 288 306 319 324 324
158 160 157 154 153 156 157 156 160 164 165 161 158 158 162 164 159 160 164 156 152 153 156 160 160 161 158 152 152 154 155 156 149 142 145 140 117 120 138 138 118 90 85 91 77 62 42 27 22 10 357 352 5 4 356 141 146 286 183 161 149 184 245 331 192 246 257 259 263 265 289 283 250 247 272 313 322 318 305 279 288 309 317 323 331
160 158 152 153 154 152 150 151 157 160 158 148 150 160 165 159 149 144 147 148 149 147 149 154 158 163 161 155 158 162 162 159 149 140 138 136 121 121 131 135 120 89 93 99 73 49 30 31 26 7 6 7 22 27 19 340 335 120 161 160 157 180 205 225 232 257 259 273 278 264 293 307 257 252 275 299 313 320 316 302 310 318 318 321 331
158 155 151 154 152 146 148 152 154 157 158 152 155 164 163 156 154 150 145 148 154 153 152 152 156 163 163 164 167 165 168 164 150 142 139 137 134 139 135 123 122 115 104 98 83 62 36 18 4 11 16 7 19 32 27 8 14 68 127 154 175 210 232 245 254 285 288 313 347 310 312 316 278 277 299 300 309 336 348 329 326 322 319 319 324
153 154 151 152 150 149 151 151 154 160 161 157 162 167 163 161 162 162 157 153 157 162 159 155 159 165 163 166 171 168 171 168 156 147 140 140 145 149 141 127 127 134 120 106 99 65 34 17 8 18 24 12 22 31 29 28 28 36 45 54 2 261 258 249 247 12 7 342 356 348 336 316 286 286 308 305 304 324 323 312 325 327 321 315 315
153 155 153 152 151 154 154 152 158 164 161 162 168 169 165 166 165 163 164 162 161 164 160 157 164 166 161 165 171 170 169 167 166 158 146 147 154 153 149 148 148 150 142 129 120 71 19 40 34 29 30 29 35 37 37 35 27 31 37 33 8 315 300 350 2 355 347 343 344 342 336 323 304 290 308 313 303 313 315 306 324 331 326 318 313
158 158 157 156 155 159 158 157 161 165 166 168 169 168 165 168 167 163 167 168 163 162 159 158 163 164 161 166 167 166 165 162 163 162 157 155 156 157 157 159 162 162 154 141 135 121 58 44 39 34 27 34 41 42 46 41 30 22 24 1 338 26 358 333 344 342 343 345 335 343 347 334 315 298 303 311 299 312 317 311 321 320 317 325 322
164 161 160 160 160 163 161 161 165 168 171 167 165 168 164 165 164 159 166 167 160 163 164 161 165 167 167 172 170 164 162 159 161 163 165 163 157 160 163 162 164 165 157 149 152 142 124 69 35 37 29 32 32 30 45 43 35 29 30 139 21 29 221 315 339 340 341 340 330 347 359 342 322 304 298 305 311 321 319 313 325 323 317 332 331
170 165 164 164 167 167 162 164 168 170 171 165 166 168 158 158 159 158 164 162 158 165 169 167 171 171 168 172 171 166 167 169 175 176 175 173 167 164 164 163 163 160 161 176 184 181 157 147 143 58 30 22 14 13 31 28 23 33 31 36 66 210 237 342 8 321 327 340 339 344 349 338 331 314 303 315 319 323 317 304 317 327 325 335 337
172 168 168 168 170 170 166 168 170 171 171 165 167 169 162 159 159 162 167 166 165 169 172 172 174 173 170 173 173 173 176 180 182 181 179 181 181 177 169 167 169 162 166 198 188 191 184 180 190 171 35 9 24 5 17 17 9 20 14 354 10 9 246 32 72 278 313 331 329 334 339 331 324 312 309 317 313 315 316 304 307 315 317 332 344
174 172 173 170 170 172 172 173 172 171 174 171 169 172 169 164 163 167 169 169 171 175 177 176 176 177 175 177 180 181 182 182 182 182 182 187 190 187 177 171 172 166 174 206 191 193 195 184 183 177 212 240 337 352 0 9 350 350 358 347 312 262 228 232 243 276 252 293 318 326 333 330 327 319 312 316 316 314 312 310 308 304 312 334 341
177 177 175 171 169 173 175 176 174 173 177 176 174 176 172 169 173 172 171 175 177 178 179 177 176 177 174 177 183 184 186 188 187 186 185 190 190 185 182 179 175 171 181 203 194 198 198 190 196 198 210 222 214 243 306 331 326 329 335 330 317 285 244 255 282 309 278 241 296 310 320 328 336 336 319 317 326 324 304 299 299 299 316 334 321
178 180 176 171 169 172 176 179 176 174 178 178 177 179 175 176 182 178 177 181 178 174 175 175 175 175 174 179 187 188 186 188 192 191 189 192 188 184 186 187 181 177 186 203 201 202 196 190 201 211 214 221 216 226 266 298 312 312 305 303 310 304 241 222 278 315 308 250 260 329 356 328 326 332 321 320 331 331 306 290 283 287 305 316 308
176 180 173 168 169 171 176 180 180 177 178 179 179 180 178 181 186 183 183 180 171 170 171 172 175 176 176 180 187 189 187 190 195 194 195 199 194 189 189 187 185 188 192 197 202 204 199 200 212 217 223 239 244 240 251 278 300 303 297 288 292 296 280 260 268 289 288 257 263 56 353 302 295 309 324 324 317 315 310 294 288 291 282 294 314